Location: Campestrin
(46.4667°N, 11.7167°E)
Time: 15:27:24
(UTC+00:00)

Okean-O - Pass Details

Date: 18 April 2021
Orbit: 639 x 640 km, 98.2° (Epoch: 07 May)

Event Time Altitude Azimuth Distance (km) Brightness Sun altitude
Rises 18:32:48 0° 184° (S) 2,931 5.8 -5.3°
Reaches altitude 10° 18:35:06 10° 191° (S) 2,026 5.1 -5.7°
Maximum altitude 18:39:16 40° 262° (W) 942 4.1 -6.3°
Drops below altitude 10° 18:43:28 10° 332° (NNW) 2,042 6.1 -7.0°
Sets 18:45:48 0° 340° (NNW) 2,956 6.8 -7.4°
